sat.trackr.live / text

‹ back to catalog

STARLINK-35590

NORAD 66108 · 2025-236Y

PAYLOAD ACTIVE UNKNOWN

§ Identity

Operator
Country
US
Launch date
2025-10-19
Launch site
AFWTR
Launch vehicle
Mass (kg)
RCS (m²)

Purposes: comms

External: N2YO · Heavens-Above · Gunter

§ Orbital elements

Epoch: 2026-09-20T05:34:40.459008Z

Period
93.85 min
Inclination
53.1581°
Eccentricity
0.0001563
Mean motion
15.34403196 rev/d
Perigee alt
461.6 km
Apogee alt
463.8 km
Semi-major
6,840.8 km
B*
6.0957e-4
RAAN
277.1411°
Arg perigee
91.2648°
Mean anomaly
268.8533°
Rev number
5,271

§ Raw data

STARLINK-355901 66108U 25236Y   26263.23241272  .00020277  00000+0  60957-3 0  99982 66108  53.1581 277.1411 0001563  91.2648 268.8533 15.34403196 52710

JSON: /api/v1/satellites/66108 · /tle

For live sub-satellite position, see the globe view (requires WebGL).

§ Visibility from observer

Set your observer location to see the next 7 days of passes ≥ 10°. The values pass through the URL so the page stays shareable.

No JS? Fill the form by hand. The geolocation button needs JavaScript.